K4GZX-11 Weather Reports


Display with metric or nautical units.
time (UTC)temp
F
wind
direction
speed
MPH
gust
MPH
rain 1hr
in
rain 24hr
in
rain mn
in
humidity
%
barometer
mb
20260901231657 92 103 0.0 0.0 0.00 0.00 0.00 43 1017.3
20260901231146 93 103 0.0 0.0 0.00 0.00 0.00 43 1017.3
20260901230645 93 103 0.0 0.0 0.00 0.00 0.00 42 1017.3
20260901230146 93 103 0.0 0.0 0.00 0.00 0.00 43 1017.4
20260901225645 93 103 0.0 0.0 0.00 0.00 0.00 43 1017.4
20260901225145 93 103 0.0 0.0 0.00 0.00 0.00 43 1017.3
20260901224646 93 103 0.0 0.0 0.00 0.00 0.00 43 1017.4
20260901224145 93 103 0.0 0.0 0.00 0.00 0.00 42 1017.3
20260901223645 93 103 0.0 0.0 0.00 0.00 0.00 43 1017.3
20260901223145 93 103 0.0 0.0 0.00 0.00 0.00 43 1017.3
20260901222645 93 103 0.0 0.0 0.00 0.00 0.00 42 1017.3
20260901222145 94 103 0.0 0.0 0.00 0.00 0.00 42 1017.3
20260901221645 94 103 0.0 0.0 0.00 0.00 0.00 42 1017.3
20260901221145 94 103 0.0 0.0 0.00 0.00 0.00 42 1017.3
20260901220645 94 103 0.0 0.0 0.00 0.00 0.00 42 1017.3
20260901220145 94 103 0.0 0.0 0.00 0.00 0.00 42 1017.3
20260901215650 94 103 0.0 0.0 0.00 0.00 0.00 42 1017.3
20260901215158 94 103 0.0 0.0 0.00 0.00 0.00 42 1017.2
20260901214650 94 103 0.0 0.0 0.00 0.00 0.00 40 1017.2
20260901214157 94 103 0.0 0.0 0.00 0.00 0.00 42 1017.2
20260901213645 94 103 0.0 0.0 0.00 0.00 0.00 42 1017.2
20260901213150 94 103 0.0 0.0 0.00 0.00 0.00 41 1017.1
20260901212657 94 103 0.0 0.0 0.00 0.00 0.00 40 1017.2
20260901212145 94 103 0.0 0.0 0.00 0.00 0.00 42 1017.2
20260901211645 94 103 0.0 0.0 0.00 0.00 0.00 41 1017.2
20260901211145 94 103 0.0 0.0 0.00 0.00 0.00 41 1017.2
20260901210645 94 103 0.0 0.0 0.00 0.00 0.00 40 1017.3
20260901210145 94 103 0.0 0.0 0.00 0.00 0.00 39 1017.3
20260901205645 95 103 0.0 0.0 0.00 0.00 0.00 41 1017.4
20260901205148 95 103 0.0 0.0 0.00 0.00 0.00 41 1017.5
20260901204645 95 103 0.0 0.0 0.00 0.00 0.00 41 1017.5
20260901203709 94 103 0.0 0.0 0.00 0.00 0.00 39 1017.6
20260901203217 94 103 0.0 0.0 0.00 0.00 0.00 40 1017.7
20260901202704 94 103 0.0 0.0 0.00 0.00 0.00 41 1017.7
20260901202204 94 103 0.0 0.0 0.00 0.00 0.00 39 1017.8
20260901201705 95 103 0.0 0.0 0.00 0.00 0.00 40 1017.9
20260901201205 95 103 0.0 0.0 0.00 0.00 0.00 40 1018.0
20260901200705 95 103 0.0 0.0 0.00 0.00 0.00 40 1018.0
20260901200204 95 103 0.0 0.0 0.00 0.00 0.00 40 1018.0
20260901195705 95 103 0.0 0.0 0.00 0.00 0.00 39 1017.9
20260901195204 95 103 0.0 0.0 0.00 0.00 0.00 38 1018.0
20260901194706 95 103 0.0 0.0 0.00 0.00 0.00 38 1018.1
20260901194214 95 103 0.0 0.0 0.00 0.00 0.00 39 1018.2
20260901193721 94 103 0.0 0.0 0.00 0.00 0.00 41 1018.2
20260901193229 94 103 0.0 0.0 0.00 0.00 0.00 39 1018.3
20260901192704 94 103 0.0 1.0 0.00 0.00 0.00 42 1018.3
20260901192204 94 103 0.0 1.0 0.00 0.00 0.00 41 1018.4
20260901191704 94 103 0.0 0.0 0.00 0.00 0.00 43 1018.5
20260901191209 94 103 0.0 0.0 0.00 0.00 0.00 42 1018.5
20260901190717 95 103 0.0 0.0 0.00 0.00 0.00 40 1018.6
20260901190209 96 103 0.0 0.0 0.00 0.00 0.00 40 1018.6
20260901185717 97 103 0.0 0.0 0.00 0.00 0.00 39 1018.6
20260901185204 97 103 0.0 0.0 0.00 0.00 0.00 38 1018.6
20260901184704 97 103 0.0 0.0 0.00 0.00 0.00 39 1018.8
20260901184205 97 103 0.0 1.0 0.00 0.00 0.00 41 1018.9
20260901183705 96 103 0.0 1.0 0.00 0.00 0.00 40 1018.9
20260901183204 96 103 0.0 0.0 0.00 0.00 0.00 41 1018.8
20260901182707 95 103 0.0 0.0 0.00 0.00 0.00 43 1018.9
20260901182204 95 103 0.0 0.0 0.00 0.00 0.00 42 1018.8
20260901181704 95 103 0.0 0.0 0.00 0.00 0.00 41 1018.9
20260901181205 96 103 0.0 0.0 0.00 0.00 0.00 41 1019.0
20260901180705 96 103 0.0 0.0 0.00 0.00 0.00 41 1019.1
20260901180204 96 103 0.0 0.0 0.00 0.00 0.00 40 1019.0
20260901175709 97 103 0.0 0.0 0.00 0.00 0.00 40 1019.1
20260901175217 97 103 0.0 0.0 0.00 0.00 0.00 41 1019.2
20260901174704 97 103 0.0 0.0 0.00 0.00 0.00 40 1019.2
20260901174205 97 103 0.0 0.0 0.00 0.00 0.00 43 1019.3
20260901173705 96 103 0.0 0.0 0.00 0.00 0.00 42 1019.4
20260901173207 95 103 0.0 0.0 0.00 0.00 0.00 43 1019.5
20260901172704 95 103 0.0 0.0 0.00 0.00 0.00 43 1019.5
20260901172204 95 103 0.0 0.0 0.00 0.00 0.00 43 1019.5
20260901171704 95 103 0.0 0.0 0.00 0.00 0.00 43 1019.6
20260901171205 95 103 0.0 0.0 0.00 0.00 0.00 43 1019.8
20260901170704 94 103 0.0 0.0 0.00 0.00 0.00 44 1019.8
20260901170205 94 103 0.0 0.0 0.00 0.00 0.00 44 1019.8
20260901165704 94 103 0.0 0.0 0.00 0.00 0.00 47 1019.8
20260901165205 94 103 0.0 0.0 0.00 0.00 0.00 49 1020.0
20260901164705 93 103 0.0 0.0 0.00 0.00 0.00 47 1020.2
20260901164204 94 103 0.0 0.0 0.00 0.00 0.00 46 1020.2
20260901163709 94 103 0.0 0.0 0.00 0.00 0.00 46 1020.3
20260901163217 94 103 0.0 0.0 0.00 0.00 0.00 49 1020.3
20260901162709 93 103 0.0 0.0 0.00 0.00 0.00 50 1020.3
20260901162216 93 103 0.0 0.0 0.00 0.00 0.00 48 1020.5
20260901161704 93 103 0.0 0.0 0.00 0.00 0.00 50 1020.5
20260901161209 92 103 0.0 0.0 0.00 0.00 0.00 50 1020.5
20260901160716 92 103 0.0 0.0 0.00 0.00 0.00 50 1020.6
20260901160205 92 103 0.0 0.0 0.00 0.00 0.00 51 1020.8
20260901155704 92 103 0.0 0.0 0.00 0.00 0.00 51 1020.7
20260901155211 91 103 0.0 0.0 0.00 0.00 0.00 54 1020.8
20260901154718 91 103 0.0 0.0 0.00 0.00 0.00 56 1020.8
20260901154226 90 103 0.0 0.0 0.00 0.00 0.00 54 1020.9
20260901153733 90 103 0.0 0.0 0.00 0.00 0.00 55 1020.9
20260901153241 89 103 0.0 0.0 0.00 0.00 0.00 59 1020.9
20260901152705 88 103 0.0 0.0 0.00 0.00 0.00 58 1020.9
20260901152204 88 103 0.0 0.0 0.00 0.00 0.00 59 1020.9
20260901151458 87 103 0.0 0.0 0.00 0.00 0.00 60 1021.0
20260901150945 86 103 0.0 0.0 0.00 0.00 0.00 62 1021.1
20260901150446 85 103 0.0 0.0 0.00 0.00 0.00 63 1021.0
20260901145946 85 103 0.0 0.0 0.00 0.00 0.00 63 1021.1
20260901145445 84 103 0.0 0.0 0.00 0.00 0.00 65 1021.1
20260901144946 83 103 0.0 0.0 0.00 0.00 0.00 67 1021.2
20260901144445 82 103 0.0 0.0 0.00 0.00 0.00 68 1021.2
20260901143945 82 103 0.0 0.0 0.00 0.00 0.00 70 1021.2
20260901143445 81 103 0.0 0.0 0.00 0.00 0.00 73 1021.2
20260901142946 81 103 0.0 0.0 0.00 0.00 0.00 73 1021.2
20260901142446 80 103 0.0 0.0 0.00 0.00 0.00 75 1021.1
20260901141945 79 103 0.0 0.0 0.00 0.00 0.00 76 1021.1
20260901141446 79 103 0.0 0.0 0.00 0.00 0.00 77 1021.0
20260901140950 78 103 0.0 0.0 0.00 0.00 0.00 78 1020.9
20260901140458 78 103 0.0 0.0 0.00 0.00 0.00 80 1020.8
20260901135950 78 103 0.0 0.0 0.00 0.00 0.00 80 1020.9
20260901135458 77 103 0.0 0.0 0.00 0.00 0.00 81 1020.9
20260901134945 76 103 0.0 0.0 0.00 0.00 0.00 82 1020.9
20260901134445 76 103 0.0 0.0 0.00 0.00 0.00 83 1020.9
20260901133946 75 103 0.0 0.0 0.00 0.00 0.00 84 1020.9
20260901133446 75 103 0.0 0.0 0.00 0.00 0.00 84 1020.9
20260901132945 75 103 0.0 0.0 0.00 0.00 0.00 85 1020.9
20260901132445 74 103 0.0 0.0 0.00 0.00 0.00 85 1020.8
20260901131945 74 103 0.0 0.0 0.00 0.00 0.00 86 1020.8
20260901131450 74 103 0.0 0.0 0.00 0.00 0.00 86 1020.9
20260901130958 73 103 0.0 0.0 0.00 0.00 0.00 86 1020.9
20260901130445 73 103 0.0 0.0 0.00 0.00 0.00 86 1020.9
20260901125946 73 103 0.0 0.0 0.00 0.00 0.00 86 1021.0
20260901125445 73 103 0.0 0.0 0.00 0.00 0.00 86 1020.9
20260901124945 72 103 0.0 0.0 0.00 0.00 0.00 86 1020.9
20260901124446 72 103 0.0 0.0 0.00 0.00 0.00 86 1020.9
20260901123945 72 103 0.0 0.0 0.00 0.00 0.00 86 1020.9
20260901123447 72 103 0.0 0.0 0.00 0.00 0.00 86 1020.7
20260901122954 72 103 0.0 0.0 0.00 0.00 0.00 86 1020.7
20260901122502 72 103 0.0 0.0 0.00 0.00 0.00 86 1020.6
20260901122010 72 103 0.0 0.0 0.00 0.00 0.00 86 1020.6
20260901121445 72 103 0.0 0.0 0.00 0.00 0.00 86 1020.7
20260901120946 71 103 0.0 0.0 0.00 0.00 0.00 86 1020.6
20260901120445 71 103 0.0 0.0 0.00 0.00 0.00 85 1020.6
20260901115945 71 103 0.0 0.0 0.00 0.00 0.00 85 1020.6
20260901115445 71 103 0.0 0.0 0.00 0.00 0.00 85 1020.6
20260901114945 71 103 0.0 0.0 0.00 0.00 0.00 85 1020.5
20260901114447 71 103 0.0 0.0 0.00 0.00 0.00 85 1020.4
20260901113955 71 103 0.0 0.0 0.00 0.00 0.00 84 1020.3
20260901113502 71 103 0.0 0.0 0.00 0.00 0.00 85 1020.3
20260901112958 71 103 0.0 0.0 0.00 0.00 0.00 85 1020.2
20260901112446 71 103 0.0 0.0 0.00 0.00 0.00 84 1020.2
20260901111945 71 103 0.0 0.0 0.00 0.00 0.00 84 1020.2
20260901111445 71 103 0.0 0.0 0.00 0.00 0.00 84 1020.0
20260901110948 71 103 0.0 0.0 0.00 0.00 0.00 84 1020.0
20260901110455 71 103 0.0 0.0 0.00 0.00 0.00 84 1020.0
20260901110002 71 103 0.0 0.0 0.00 0.00 0.00 84 1019.9
20260901105509 71 103 0.0 0.0 0.00 0.00 0.00 84 1019.9
20260901104948 71 103 0.0 0.0 0.00 0.00 0.00 84 1019.8
20260901104445 71 103 0.0 0.0 0.00 0.00 0.00 84 1019.7
20260901103945 71 103 0.0 0.0 0.00 0.00 0.00 84 1019.8
20260901103445 71 103 0.0 0.0 0.00 0.00 0.00 84 1019.7
20260901102950 71 103 0.0 0.0 0.00 0.00 0.00 84 1019.7
20260901102457 71 103 0.0 0.0 0.00 0.00 0.00 84 1019.6
20260901101945 71 103 0.0 0.0 0.00 0.00 0.00 84 1019.7
20260901101446 72 103 0.0 0.0 0.00 0.00 0.00 84 1019.7
20260901100945 72 103 0.0 0.0 0.00 0.00 0.00 84 1019.6
20260901100445 72 103 0.0 0.0 0.00 0.00 0.00 84 1019.5
20260901095945 72 103 0.0 0.0 0.00 0.00 0.00 84 1019.5
20260901095445 72 103 0.0 0.0 0.00 0.00 0.00 84 1019.4
20260901094945 72 103 0.0 0.0 0.00 0.00 0.00 83 1019.4
20260901094445 72 103 0.0 0.0 0.00 0.00 0.00 83 1019.5
20260901093945 72 103 0.0 0.0 0.00 0.00 0.00 83 1019.5
20260901093448 72 103 0.0 0.0 0.00 0.00 0.00 83 1019.5
20260901092946 72 103 0.0 0.0 0.00 0.00 0.00 83 1019.5
20260901092445 72 103 0.0 0.0 0.00 0.00 0.00 82 1019.5
20260901091945 72 103 0.0 0.0 0.00 0.00 0.00 82 1019.3
20260901091445 72 103 0.0 0.0 0.00 0.00 0.00 82 1019.3
20260901090945 72 103 0.0 0.0 0.00 0.00 0.00 82 1019.3
20260901090445 72 103 0.0 0.0 0.00 0.00 0.00 82 1019.3
20260901085945 72 103 0.0 0.0 0.00 0.00 0.00 83 1019.4
20260901085445 72 103 0.0 0.0 0.00 0.00 0.00 82 1019.4
20260901084945 72 103 0.0 0.0 0.00 0.00 0.00 82 1019.4
20260901084445 73 103 0.0 0.0 0.00 0.00 0.00 82 1019.4
20260901083945 73 103 0.0 0.0 0.00 0.00 0.00 82 1019.4
20260901083450 73 103 0.0 0.0 0.00 0.00 0.00 81 1019.3
20260901082957 73 103 0.0 0.0 0.00 0.00 0.00 81 1019.2
20260901082445 73 103 0.0 0.0 0.00 0.00 0.00 80 1019.3
20260901081945 73 103 0.0 0.0 0.00 0.00 0.00 80 1019.3
20260901081445 73 103 0.0 0.0 0.00 0.00 0.00 80 1019.3
20260901080945 73 103 0.0 0.0 0.00 0.00 0.00 80 1019.3
20260901080445 73 103 0.0 0.0 0.00 0.00 0.00 80 1019.3
20260901075945 73 103 0.0 0.0 0.00 0.00 0.00 80 1019.4
20260901075445 73 103 0.0 0.0 0.00 0.00 0.00 80 1019.4
20260901074945 74 103 0.0 0.0 0.00 0.00 0.00 80 1019.4
20260901074445 74 103 0.0 0.0 0.00 0.00 0.00 80 1019.4
20260901073948 74 103 0.0 0.0 0.00 0.00 0.00 79 1019.4
20260901073422 74 103 0.0 0.0 0.00 0.00 0.00 80 1019.4
20260901072923 74 103 0.0 0.0 0.00 0.00 0.00 80 1019.5
20260901072429 74 103 0.0 0.0 0.00 0.00 0.00 80 1019.4
20260901071937 74 103 0.0 0.0 0.00 0.00 0.00 80 1019.5
20260901071444 74 103 0.0 0.0 0.00 0.00 0.00 80 1019.5
20260901070939 74 103 0.0 0.0 0.00 0.00 0.00 79 1019.5
20260901070435 74 103 0.0 0.0 0.00 0.00 0.00 79 1019.5
20260901065922 74 103 0.0 0.0 0.00 0.00 0.00 79 1019.6
20260901065423 74 103 0.0 0.0 0.00 0.00 0.00 79 1019.7
20260901064923 75 103 0.0 0.0 0.00 0.00 0.00 79 1019.6
20260901064428 75 103 0.0 0.0 0.00 0.00 0.00 79 1019.6
20260901063936 75 103 0.0 0.0 0.00 0.00 0.00 79 1019.6
20260901063422 75 103 0.0 0.0 0.00 0.00 0.00 79 1019.7
20260901062922 75 103 0.0 0.0 0.00 0.00 0.00 79 1019.6
20260901062423 75 103 0.0 0.0 0.00 0.00 0.00 79 1019.7
20260901061923 75 103 0.0 0.0 0.00 0.00 0.00 79 1019.7
20260901061422 75 103 0.0 0.0 0.00 0.00 0.00 79 1019.7
20260901060922 75 103 0.0 0.0 0.00 0.00 0.00 79 1019.7
20260901060423 75 103 0.0 0.0 0.00 0.00 0.00 78 1019.7
20260901055922 75 103 0.0 0.0 0.00 0.00 0.00 78 1019.8
20260901055422 75 103 0.0 0.0 0.00 0.00 0.00 78 1019.7
20260901054923 75 103 0.0 0.0 0.00 0.00 0.00 78 1019.7
20260901054431 76 103 0.0 0.0 0.00 0.00 0.00 78 1019.7
20260901053938 76 103 0.0 0.0 0.00 0.00 0.00 78 1019.8
20260901053446 76 103 0.0 0.0 0.00 0.00 0.00 77 1019.8
20260901052941 76 103 0.0 0.0 0.00 0.00 0.00 77 1019.9
20260901052436 76 103 0.0 0.0 0.00 0.00 0.00 77 1019.9
20260901051944 76 103 0.0 0.0 0.00 0.00 0.00 76 1019.9
20260901051439 76 103 0.0 0.0 0.00 0.00 0.00 76 1019.9
20260901050934 76 103 0.0 0.0 0.00 0.00 0.00 76 1019.9
20260901050422 77 103 0.0 0.0 0.00 0.00 0.00 74 1019.9
20260901045922 77 103 0.0 0.0 0.00 0.00 0.00 74 1019.8
20260901045427 77 103 0.0 0.0 0.00 0.00 0.00 73 1019.9
20260901044934 77 103 0.0 0.0 0.00 0.00 0.00 72 1019.8
20260901044422 78 103 0.0 0.0 0.00 0.00 0.00 72 1019.9
20260901043923 78 103 0.0 0.0 0.00 0.00 0.00 72 1019.9
20260901043422 78 103 0.0 0.0 0.00 0.00 0.00 72 1019.9
20260901042922 78 103 0.0 0.0 0.00 0.00 0.00 72 1019.9
20260901042422 78 103 0.0 0.0 0.00 0.00 0.00 71 1019.9
20260901041745 78 103 0.0 0.0 0.00 0.00 0.00 71 1019.8
20260901041246 78 103 0.0 0.0 0.00 0.00 0.00 71 1019.8
20260901040755 79 103 0.0 0.0 0.00 0.00 0.00 71 1019.8
20260901040301 79 103 0.0 0.0 0.00 0.00 0.00 71 1019.8
20260901035756 79 103 0.0 0.0 0.00 0.00 0.00 70 1019.8
20260901035305 79 103 0.0 0.0 0.00 0.00 0.00 69 1019.8
20260901034811 79 103 0.0 0.0 0.00 0.00 0.00 69 1019.9
20260901034255 79 103 0.0 0.0 0.00 0.00 0.00 69 1019.8
20260901033802 80 103 0.0 0.0 0.00 0.00 0.00 69 1019.8
20260901033310 80 103 0.0 0.0 0.00 0.00 0.00 69 1019.7
20260901032745 80 103 0.0 0.0 0.00 0.00 0.00 68 1019.7
20260901032246 80 103 0.0 0.0 0.00 0.00 0.00 68 1019.7
20260901031746 80 103 0.0 0.0 0.00 0.00 0.00 68 1019.6
20260901031245 80 103 0.0 0.0 0.00 0.00 0.00 67 1019.7
20260901030745 81 103 0.0 0.0 0.00 0.00 0.00 67 1019.7
20260901030246 81 103 0.0 0.0 0.00 0.00 0.00 67 1019.7
20260901025749 81 103 0.0 0.0 0.00 0.00 0.00 67 1019.6
20260901025246 81 103 0.0 0.0 0.00 0.00 0.00 66 1019.7
20260901024746 81 103 0.0 0.0 0.00 0.00 0.00 65 1019.7
20260901024250 81 103 0.0 0.0 0.00 0.00 0.00 65 1019.6
20260901023758 82 103 0.0 0.0 0.00 0.00 0.00 65 1019.6
20260901023246 82 103 0.0 0.0 0.00 0.00 0.00 64 1019.6
20260901022745 82 103 0.0 0.0 0.00 0.00 0.00 64 1019.6
20260901022245 82 103 0.0 0.0 0.00 0.00 0.00 64 1019.6
20260901021746 82 103 0.0 0.0 0.00 0.00 0.00 64 1019.6
20260901021245 83 103 0.0 0.0 0.00 0.00 0.00 63 1019.6
20260901020746 83 103 0.0 0.0 0.00 0.00 0.00 62 1019.5
20260901020248 83 103 0.0 0.0 0.00 0.00 0.00 62 1019.4
20260901015745 83 103 0.0 0.0 0.00 0.00 0.00 62 1019.4
20260901015250 83 103 0.0 0.0 0.00 0.00 0.00 62 1019.4
20260901014758 83 103 0.0 0.0 0.00 0.00 0.00 61 1019.3
20260901014245 84 103 0.0 0.0 0.00 0.00 0.00 61 1019.3
20260901013745 84 103 0.0 0.0 0.00 0.00 0.00 61 1019.2
20260901013246 84 103 0.0 0.0 0.00 0.00 0.00 60 1019.1
20260901012745 84 103 0.0 0.0 0.00 0.00 0.00 59 1019.1
20260901012245 85 103 0.0 0.0 0.00 0.00 0.00 59 1019.0
20260901011746 85 103 0.0 0.0 0.00 0.00 0.00 58 1018.9
20260901011245 85 103 0.0 0.0 0.00 0.00 0.00 58 1018.8
20260901010745 86 103 0.0 0.0 0.00 0.00 0.00 58 1018.8
20260901010245 86 103 0.0 0.0 0.00 0.00 0.00 58 1018.8
20260901005745 86 103 0.0 0.0 0.00 0.00 0.00 56 1018.8
20260901005245 87 103 0.0 0.0 0.00 0.00 0.00 55 1018.6
20260901004746 87 103 0.0 0.0 0.00 0.00 0.00 54 1018.5
20260901004245 87 103 0.0 0.0 0.00 0.00 0.00 54 1018.4
20260901003745 88 103 0.0 0.0 0.00 0.00 0.00 53 1018.4
20260901003245 88 103 0.0 0.0 0.00 0.00 0.00 52 1018.4
20260901002745 88 103 0.0 0.0 0.00 0.00 0.00 52 1018.4
20260901002245 88 103 0.0 0.0 0.00 0.00 0.00 51 1018.4
20260901001745 89 103 0.0 0.0 0.00 0.00 0.00 51 1018.3
20260901001245 89 103 0.0 0.0 0.00 0.00 0.00 50 1018.4
20260901000745 89 103 0.0 0.0 0.00 0.00 0.00 50 1018.3
20260901000248 89 103 0.0 0.0 0.00 0.00 0.00 49 1018.3
20260831235745 89 103 0.0 0.0 0.00 0.00 0.00 49 1018.2
20260831235245 90 103 0.0 0.0 0.00 0.00 0.00 48 1018.2
20260831234745 90 103 0.0 0.0 0.00 0.00 0.00 48 1018.2
20260831234245 90 103 0.0 0.0 0.00 0.00 0.00 48 1018.2
20260831233745 90 103 0.0 0.0 0.00 0.00 0.00 47 1018.1
20260831233245 90 103 0.0 0.0 0.00 0.00 0.00 47 1018.1
20260831232751 90 103 0.0 0.0 0.00 0.00 0.00 47 1018.1
20260831232259 90 103 0.0 0.0 0.00 0.00 0.00 46 1018.2